User: anonymous   Login
Location: Chervonnoye
(48.6000°N, 34.4000°E)
Time: 22:13:47
(UTC+00:00)
Language:

YUBILEINY - Orbit

View from above orbital plane
View from above orbital plane
View from above satellite
View from above satellite

Ground track
Ground track

The orbit data is extracted from the following two-line orbital elements,

1 32953U 08025A   21335.39109276  .00000021  00000-0  80971-4 0  9990
2 32953  82.5019 307.1030 0019360 336.7517  23.2685 12.43105981613723
Epoch (UTC): 01 December 2021 09:23:10
Eccentricity: 0.0019360
inclination: 82.5019°
perigee height: 1478 km
apogee height: 1509 km
right ascension of ascending node: 307.1030°
argument of perigee: 336.7517°
revolutions per day: 12.43105981
mean anomaly at epoch: 23.2685°
orbit number at epoch: 61372

The dashed part of the orbit path shows where the satellite is in the earth's shadow,  

DLR